This is the latest recevied weather packets stored in our database for station/object DO7ZT-10. If no packets are shown the sender has not sent any weather packets the latest 10 day(s).
| Time | Temp. | Humidity | Pressure | Rain* | Wind** | Luminosity | Snow |
|---|---|---|---|---|---|---|---|
| 1777635186 | 21.67° C | 30% | 1027.9 hPa | - | - | - | - |
| 1777634286 | 21.67° C | 30% | 1028.2 hPa | - | - | - | - |
| 1777633386 | 21.67° C | 30% | 1028.2 hPa | - | - | - | - |
| 1777632486 | 21.11° C | 29% | 1028.3 hPa | - | - | - | - |
| 1777631586 | 21.67° C | 30% | 1028.4 hPa | - | - | - | - |
| 1777630686 | 21.11° C | 30% | 1028.5 hPa | - | - | - | - |
| 1777629785 | 21.11° C | 31% | 1028.6 hPa | - | - | - | - |
| 1777628885 | 20.56° C | 32% | 1028.8 hPa | - | - | - | - |
| 1777627985 | 20.56° C | 33% | 1028.9 hPa | - | - | - | - |
| 1777627085 | 19.44° C | 35% | 1029 hPa | - | - | - | - |
| 1777626185 | 18.33° C | 36% | 1029 hPa | - | - | - | - |
| 1777625285 | 18.33° C | 39% | 1029.1 hPa | - | - | - | - |
| 1777624385 | 18.33° C | 38% | 1029.2 hPa | - | - | - | - |
| 1777623487 | 16.67° C | 40% | 1029.1 hPa | - | - | - | - |
| 1777622585 | 15.56° C | 46% | 1029.2 hPa | - | - | - | - |
| 1777621685 | 14.44° C | 51% | 1029.2 hPa | - | - | - | - |
| 1777620785 | 13.33° C | 55% | 1029.2 hPa | - | - | - | - |
| 1777619885 | 12.78° C | 55% | 1029.2 hPa | - | - | - | - |
| 1777618985 | 11.67° C | 56% | 1029.2 hPa | - | - | - | - |
| 1777618085 | 11.67° C | 55% | 1029.1 hPa | - | - | - | - |
| 1777617184 | 11.11° C | 55% | 1029.3 hPa | - | - | - | - |
| 1777616284 | 10.56° C | 57% | 1029.2 hPa | - | - | - | - |
| 1777615384 | 10.56° C | 57% | 1029.3 hPa | - | - | - | - |
| 1777614484 | 10° C | 58% | 1029.2 hPa | - | - | - | - |
| 1777613584 | 8.89° C | 64% | 1029.2 hPa | - | - | - | - |
* Rain since midnight (hover to see other rain measurements)
** Current wind speed in m/s (hover to see current wind gust speed)